Weather History for Phnom Penh, Cambodia

Change the Weather History Date:

Saturday, August 3, 2013

  Actual Average Record
Temperature  
Mean Temperature 84 °F -  
Max Temperature 89 °F 88 °F 95 °F (2001)
Min Temperature 78 °F 77 °F 73 °F (2007)
Cooling Degree Days 18    
Growing Degree Days 34 (Base 50)    
Moisture  
Dew Point 73 °F    
Average Humidity 72    
Maximum Humidity 89    
Minimum Humidity 52    
Precipitation  
Precipitation 0.00 in - - ()
Sea Level Pressure  
Sea Level Pressure 29.74 in    
Wind  
Wind Speed 10 mph ()    
Max Wind Speed 21 mph    
Max Gust Speed -    
Visibility 6.0 miles    
Events Rain    
Averages and records for this station are not official NWS values.
T = Trace of Precipitation, MM = Missing Value Source: Averaged Metar Reports

Daily Weather History Graph

Daily Weather History Graph

Search for Another Location

Airport:

Trip Planner

Search our weather history database for the weather conditions in past years. The results will help you decide how hot, cold, wet, or windy it might be!

Date:

Astronomy

Aug. 03, 2013 Rise Set
Actual Time 5:48 AM ICT 6:25 PM ICT
Civil Twilight 5:26 AM ICT 6:47 PM ICT
Nautical Twilight 5:00 AM ICT 7:13 PM ICT
Astronomical Twilight 4:33 AM ICT 7:39 PM ICT
Moon 2:39 AM ICT (8/3) 3:36 PM ICT (8/3)
Length of Visible Light 13h 21m
Length of Day
12h 36m
Waning Crescent, 12% of the Moon is Illuminated
Aug 3
Waning Crescent
Aug 7
New
Aug 14
First Quarter
Aug 21
Full
Aug 28
Last Quarter

Hourly Weather History & Observations

Time (ICT) Temp. Heat Index Dew Point Humidity Pressure Visibility Wind Dir Wind Speed Gust Speed Precip Events Conditions
12:00 AM 80.6 °F 85.4 °F 73.4 °F 79% 29.74 in 6.2 mi South 9.2 mph - N/A   Mostly Cloudy
12:30 AM 80.6 °F 86.2 °F 75.2 °F 84% 29.74 in 6.2 mi South 10.4 mph - N/A   Mostly Cloudy
1:00 AM 80.6 °F 86.2 °F 75.2 °F 84% 29.71 in 6.2 mi South 8.1 mph - N/A   Mostly Cloudy
6:00 AM 78.8 °F - 75.2 °F 89% 29.68 in 5.6 mi South 6.9 mph - N/A   Scattered Clouds
6:30 AM 78.8 °F - 75.2 °F 89% 29.71 in 6.2 mi South 6.9 mph - N/A   Scattered Clouds
7:00 AM 79 °F - 76 °F 86% 29.75 in 6 mi South 2.2 mph - -   Mostly Cloudy
7:00 AM 80.6 °F 86.2 °F 75.2 °F 84% 29.71 in 6.2 mi South 6.9 mph - N/A   Scattered Clouds
7:30 AM 80.6 °F 86.2 °F 75.2 °F 84% 29.71 in 6.2 mi South 8.1 mph - N/A   Scattered Clouds
8:00 AM 82.4 °F 89.5 °F 75.2 °F 79% 29.74 in 6.2 mi South 11.5 mph - N/A   Scattered Clouds
8:30 AM 84.2 °F 92.3 °F 75.2 °F 74% 29.74 in 6.2 mi SSW 9.2 mph - N/A   Scattered Clouds
9:00 AM 84.2 °F 92.3 °F 75.2 °F 74% 29.77 in 6.2 mi South 10.4 mph - N/A   Scattered Clouds
9:30 AM 86.0 °F 93.4 °F 73.4 °F 66% 29.77 in 6.2 mi SSW 10.4 mph - N/A   Scattered Clouds
10:00 AM 86.0 °F 93.4 °F 73.4 °F 66% 29.77 in 6.2 mi SSW 12.7 mph - N/A   Scattered Clouds
10:30 AM 86.0 °F 93.4 °F 73.4 °F 66% 29.77 in 6.2 mi SW 15.0 mph - N/A   Mostly Cloudy
11:00 AM 87.8 °F 93.8 °F 71.6 °F 58% 29.74 in 6.2 mi WSW 13.8 mph - N/A   Mostly Cloudy
11:30 AM 87.8 °F 93.8 °F 71.6 °F 58% 29.74 in 6.2 mi WSW 11.5 mph - N/A   Mostly Cloudy
12:00 PM 87.8 °F 95.6 °F 73.4 °F 62% 29.74 in 6.2 mi SSW 11.5 mph - N/A   Scattered Clouds
12:30 PM 89.6 °F 96.2 °F 71.6 °F 55% 29.71 in 6.2 mi West 13.8 mph - N/A   Scattered Clouds
1:00 PM 89.6 °F 96.2 °F 71.6 °F 55% 29.71 in 6.2 mi SW 12.7 mph - N/A   Scattered Clouds
1:30 PM 89.6 °F 96.2 °F 71.6 °F 55% 29.71 in 6.2 mi SW 20.7 mph - N/A   Scattered Clouds
2:00 PM 89.6 °F 94.7 °F 69.8 °F 52% 29.68 in 6.2 mi WSW 18.4 mph - N/A   Scattered Clouds
2:30 PM 89.6 °F 94.7 °F 69.8 °F 52% 29.68 in 6.2 mi WSW 13.8 mph - N/A   Scattered Clouds
3:00 PM 87.8 °F 93.8 °F 71.6 °F 58% 29.68 in 6.2 mi SW 17.3 mph - N/A   Scattered Clouds
3:30 PM 86.0 °F 91.8 °F 71.6 °F 62% 29.68 in 6.2 mi WSW 13.8 mph - N/A   Scattered Clouds
4:00 PM 87.8 °F 93.8 °F 71.6 °F 58% 29.68 in 6.2 mi SW 16.1 mph - N/A   Scattered Clouds
4:30 PM 84.2 °F 89.6 °F 71.6 °F 66% 29.68 in 6.2 mi SSW 13.8 mph - N/A   Scattered Clouds
5:00 PM 82.4 °F 87.2 °F 71.6 °F 70% 29.71 in 6.2 mi South 13.8 mph - N/A   Scattered Clouds
5:30 PM 82.4 °F 87.2 °F 71.6 °F 70% 29.71 in 6.2 mi South 12.7 mph - N/A   Scattered Clouds
6:00 PM 80.6 °F 84.6 °F 71.6 °F 74% 29.74 in 6.2 mi SSW 16.1 mph - N/A   Scattered Clouds
6:30 PM 80.6 °F 84.6 °F 71.6 °F 74% 29.74 in 5.6 mi SSW 12.7 mph - N/A   Scattered Clouds
7:00 PM 80.6 °F 84.6 °F 71.6 °F 74% 29.74 in 5.6 mi SSW 10.4 mph - N/A   Scattered Clouds
7:30 PM 80.6 °F 83.9 °F 69.8 °F 70% 29.77 in 5.6 mi SSW 11.5 mph - N/A   Scattered Clouds
8:00 PM 80.6 °F 84.6 °F 71.6 °F 74% 29.77 in 5.6 mi SSW 10.4 mph - N/A Rain Light Rain
8:30 PM 78.8 °F - 71.6 °F 78% 29.80 in 5.6 mi South 8.1 mph - N/A Rain Light Rain
9:00 PM 78.8 °F - 71.6 °F 78% 29.80 in 5.6 mi South 6.9 mph - N/A Rain Light Rain
9:30 PM 78.8 °F - 73.4 °F 83% 29.80 in 5.6 mi South 6.9 mph - N/A   Mostly Cloudy
10:00 PM 78.8 °F - 73.4 °F 83% 29.83 in 5.6 mi SSW 6.9 mph - N/A   Mostly Cloudy
10:30 PM 78.8 °F - 73.4 °F 83% 29.83 in 5.6 mi SSW 6.9 mph - N/A   Mostly Cloudy
11:00 PM 78.8 °F - 73.4 °F 83% 29.83 in 5.6 mi SSW 5.8 mph - N/A   Mostly Cloudy